Terug naar catalogus

STARLINK-36504

ActiefCommunicatieVLEO
NORAD 67462·PAYLOAD·🇺🇸 United States

Gelanceerd Jan 14, 2026 vanaf Cape Canaveral Space Force Station

Loading…

Volgende Passages (komende 24 uur)

TLE

VersSource: CelesTrak SupGP

Epoch: Sep 14, 2026, 23:15 UTC

1 67462C 26008T   26257.96923611 -.00001446  00000+0 -52338-4 0  2578
2 67462  43.0003 216.2215 0001063 251.4566 358.1357 15.27598196    11

Volg STARLINK-36504 in realtime met AllMySat

Download on the App Store